[[{"header":{"parameterUnit":"m.s-1","parameterCategory":2,"la1":30.2991,"la2":30.254,"lo1":-89.0895,"lo2":-89.0444,"dy":0.0017,"dx":0.0017,"nx":28,"ny":28,"refTime":"2023-05-23T21:00:00:Z","depth":"0","parameterNumber":2,"parameterNumberName":"U-component_of_CURRENTS"},"data":[0,0,0,0,0,0,0,0,0,0,0,0,0,0,0,0,0,0,0,0,0,0,0,0,0,0,0,0,0,0,0,0,0,0,0,0,0,0,0,0,0,0,0,0,0,0,0,0,0,0,0,0,0,0,0,0,0,0,-0.4223,-0.4224,0,-0.4209,-0.4208,-0.4207,-0.4062,-0.4059,-0.4056,-0.4054,-0.3834,-0.383,-0.3827,0,0,0,0,0,0,0,0,0,0,0,0,0,-0.3933,-0.3939,-0.4223,-0.4224,-0.4225,-0.4209,-0.4208,-0.4207,-0.4062,-0.4059,-0.4056,-0.4053,-0.3835,-0.3831,-0.3826,0,0,0,0,0,0,0,0,0,0,0,0,0,-0.3992,-0.3941,-0.4223,-0.4159,-0.4154,-0.421,-0.4208,-0.4206,-0.4063,-0.4059,-0.4055,-0.4051,-0.3836,-0.3831,-0.3826,-0.3871,0,0,-0.381,-0.3808,0,0,0,0,0,0,0,0,-0.3989,-0.4002,-0.4168,-0.4164,-0.4159,-0.4143,-0.4025,-0.4088,-0.4064,-0.4085,-0.4054,-0.4049,-0.3929,-0.3916,-0.3908,-0.3861,-0.3851,-0.381,-0.3806,-0.3804,-0.3803,0,0,0,0,0,0,0,-0.3986,-0.4,-0.4205,-0.4169,-0.4164,-0.4067,-0.4071,-0.4036,-0.4016,-0.4083,-0.4075,-0.4094,-0.3922,-0.3913,-0.3901,-0.3848,-0.381,-0.3805,-0.3802,-0.38,-0.3807,-0.381,0,0,0,0,0,0,-0.4027,-0.3999,-0.4206,-0.4206,-0.4076,-0.4077,-0.4081,-0.4143,-0.402,-0.4003,-0.4097,-0.4087,-0.3924,-0.3907,-0.3893,-0.3859,-0.3804,-0.3799,-0.3796,-0.3804,-0.3808,-0.3811,0,0,0,0,0,0,-0.4022,-0.4048,-0.4207,-0.4107,-0.4122,-0.4089,-0.4157,-0.4145,-0.4131,-0.4036,-0.4011,-0.4096,-0.392,-0.39,-0.3871,-0.3852,-0.3797,-0.3792,-0.38,-0.3805,-0.381,-0.3842,0,0,0,0,0,0,-0.4014,-0.4047,-0.4095,-0.4113,-0.413,-0.4255,-0.4161,-0.4148,-0.4154,-0.4141,-0.4028,-0.4003,-0.3916,-0.388,-0.3866,-0.3844,-0.3788,-0.3796,-0.3802,-0.3808,-0.3837,-0.3848,-0.3857,0,0,0,0,0,-0.4004,-0.41,-0.4099,-0.4123,-0.4204,-0.4259,-0.4258,-0.4208,-0.4159,-0.4175,-0.4097,-0.4006,-0.3909,-0.3879,-0.3862,-0.3837,-0.3793,-0.38,-0.3808,-0.3833,-0.3846,-0.3857,0,0,0,0,0,0,-0.3985,-0.4097,-0.4094,-0.4215,-0.4241,-0.4238,-0.4255,-0.4232,-0.4188,-0.4161,-0.4048,-0.4022,-0.3991,-0.3947,-0.3916,-0.3872,-0.3838,-0.3842,-0.3863,-0.3874,-0.3884,-0.3788,-0.3784,0,0,0,0,0,-0.4018,-0.4118,-0.4179,-0.4264,-0.4288,-0.4274,-0.4287,-0.4267,-0.4242,-0.4218,-0.4144,-0.4073,-0.4018,-0.3971,-0.3933,-0.3909,-0.3754,-0.3892,-0.3902,-0.391,-0.3831,-0.3625,-0.3604,-0.3836,-0.3836,-0.3836,0,0,-0.4027,-0.4104,-0.4154,-0.4266,-0.4271,-0.4287,-0.4268,-0.431,-0.4277,-0.4204,-0.4137,-0.4116,-0.4033,-0.3994,-0.3975,-0.3939,-0.3775,-0.392,-0.3925,-0.3839,-0.363,-0.3605,-0.3583,-0.3841,-0.384,-0.3839,0,0,-0.4052,-0.4171,-0.4222,-0.426,-0.4313,-0.4324,-0.4346,-0.4363,-0.4323,-0.4321,-0.4233,-0.4185,-0.4149,-0.4032,-0.3979,-0.4031,-0.3853,-0.407,-0.3998,-0.3804,-0.3778,-0.3754,-0.3544,-0.3501,-0.4049,-0.405,-0.405,0,-0.4026,-0.4106,-0.4237,-0.4266,-0.4241,-0.4339,-0.4299,-0.4333,-0.4325,-0.4227,-0.4309,-0.4138,-0.4133,-0.3935,-0.4002,-0.4031,-0.3899,-0.3946,-0.3801,-0.3774,-0.3748,-0.3539,-0.349,-0.4052,-0.4052,-0.4051,-0.4051,0,-0.4039,-0.4095,-0.413,-0.4186,-0.4207,-0.4216,-0.4263,-0.4267,-0.4271,-0.4229,-0.4102,-0.4107,-0.3961,-0.4013,-0.4044,-0.3858,-0.3818,-0.3847,-0.3738,-0.3724,-0.3509,-0.3457,-0.4056,-0.4055,-0.4054,-0.4053,0,0,-0.3878,-0.409,-0.4065,-0.4032,-0.4133,-0.4118,-0.412,-0.4042,-0.3915,-0.3994,-0.3765,-0.3818,-0.3805,-0.375,-0.3762,-0.3654,-0.3463,-0.3709,-0.3698,-0.3441,-0.2999,-0.2925,-0.2861,-0.3466,-0.3457,-0.345,-0.2923,0,-0.376,-0.3812,-0.3912,-0.3839,-0.383,-0.3885,-0.3834,-0.3796,-0.3779,-0.3639,-0.3621,-0.3495,-0.3708,-0.3642,-0.358,-0.3492,-0.3327,-0.36,-0.31,-0.3082,-0.2968,-0.2799,-0.2746,-0.2268,-0.2872,-0.2863,-0.2856,0,-0.3611,-0.3669,-0.3652,-0.3595,-0.3569,-0.3562,-0.3377,-0.3347,-0.3245,-0.3212,-0.312,-0.3128,-0.3016,-0.3222,-0.2967,-0.3139,-0.3063,-0.3004,-0.2982,-0.2837,-0.291,-0.2383,-0.2149,-0.2215,-0.2775,-0.2782,-0.2788,0,-0.3358,-0.3382,-0.3358,-0.3365,-0.3411,-0.3322,-0.3281,-0.319,-0.3023,-0.2934,-0.2774,-0.2705,-0.2585,-0.2538,-0.259,-0.2734,-0.227,-0.2417,-0.2213,-0.2206,-0.2013,-0.2004,-0.1712,-0.2113,-0.2115,-0.2116,-0.2118,0,-0.3158,-0.307,-0.326,-0.3254,-0.3048,-0.3134,-0.2869,-0.2835,-0.2667,-0.2388,-0.254,-0.2266,-0.2417,-0.2242,-0.2345,-0.2107,-0.2048,-0.2087,-0.2024,-0.2037,-0.2037,-0.1971,-0.2062,-0.2096,-0.2101,-0.2104,-0.2108,0,-0.2898,-0.3049,-0.2985,-0.3032,-0.298,-0.2846,-0.2616,-0.2403,-0.2343,-0.1982,-0.1928,-0.1818,-0.1649,-0.1742,-0.1589,-0.1675,-0.15,-0.1455,-0.1478,-0.1429,-0.1364,-0.1461,-0.0989,-0.0956,-0.1083,-0.1077,-0.1072,0,-0.2767,-0.278,-0.2815,-0.2691,-0.271,-0.2523,-0.2335,-0.2255,-0.2029,-0.1657,-0.1425,-0.1191,-0.0972,-0.0758,-0.095,-0.0946,-0.112,-0.084,-0.1115,-0.1233,-0.1293,-0.1411,-0.1432,-0.0868,-0.0862,-0.0857,-0.0853,0,-0.2493,-0.2589,-0.2565,-0.2377,-0.2207,-0.1985,-0.1755,-0.1555,-0.1401,-0.1157,-0.0771,-0.0557,-0.0347,-0.0312,-0.0369,-0.0449,-0.0866,-0.0732,-0.0807,-0.1009,-0.1147,-0.1133,-0.1367,-0.0809,-0.0814,-0.0817,-0.0819,-0.0821,-0.2202,-0.2155,-0.217,-0.1921,-0.1732,-0.1503,-0.1296,-0.1111,-0.0824,-0.053,-0.0343,-0.0083,0.0133,0.0045,-0.0089,-0.0325,-0.0428,-0.0428,-0.0493,-0.0571,-0.0656,-0.0792,-0.0239,-0.024,-0.0241,-0.0242,-0.0243,0,-0.1825,-0.1826,-0.1628,-0.1415,-0.1152,-0.1175,-0.0889,-0.0746,-0.0505,-0.0332,-0.0106,0.0213,0.0329,0.026,0.0045,-0.011,-0.0267,-0.0208,-0.0393,-0.0399,-0.0422,-0.0546,-0.0093,-0.0093,-0.0093,-0.0093,-0.0092,-0.0092,-0.1603,-0.1427,-0.1401,-0.0927,-0.0769,-0.0483,-0.0369,-0.0282,-0.019,-0.0033,0.0063,0.0157,0.039,0.029,-0.001,-0.0124,-0.026,-0.0232,-0.0297,-0.043,-0.0461,-0.0491,-0.0629,-0.02,-0.02,-0.0282,-0.0282,-0.0283]},{"header":{"parameterUnit":"m.s-1","parameterCategory":2,"la1":30.2991,"la2":30.254,"lo1":-89.0895,"lo2":-89.0444,"dy":0.0017,"dx":0.0017,"nx":28,"ny":28,"refTime":"2023-05-23T21:00:00:Z","depth":"0","parameterNumber":3,"parameterNumberName":"V-component_of_CURRENTS"},"data":[0,0,0,0,0,0,0,0,0,0,0,0,0,0,0,0,0,0,0,0,0,0,0,0,0,0,0,0,0,0,0,0,0,0,0,0,0,0,0,0,0,0,0,0,0,0,0,0,0,0,0,0,0,0,0,0,0,0,-0.0298,-0.0295,0,-0.0075,-0.0073,-0.007,0.0102,0.0103,0.0105,0.0106,0.0359,0.0364,0.037,0,0,0,0,0,0,0,0,0,0,0,0,0,-0.0601,-0.0596,-0.0298,-0.0295,-0.0293,-0.0076,-0.0072,-0.0069,0.0102,0.0104,0.0105,0.0107,0.0357,0.0364,0.037,0,0,0,0,0,0,0,0,0,0,0,0,0,-0.0431,-0.0594,-0.0298,-0.0183,-0.017,-0.0076,-0.0072,-0.0068,0.0101,0.0104,0.0106,0.0108,0.0355,0.0363,0.0371,0.0377,0,0,0.0396,0.0399,0,0,0,0,0,0,0,0,-0.0441,-0.042,-0.0202,-0.019,-0.0176,-0.0014,-0.0087,0.0081,0.0101,0.0,0.0106,0.0109,0.0234,0.0252,0.0292,0.0389,0.04,0.0396,0.0401,0.0405,0.0407,0,0,0,0,0,0,0,-0.0453,-0.0429,-0.0208,-0.02,-0.0184,-0.0151,-0.0124,-0.0054,0.0104,0.0009,0.0022,0.0043,0.0242,0.0283,0.0299,0.0403,0.0396,0.0403,0.0408,0.0411,0.0506,0.0504,0,0,0,0,0,0,-0.0484,-0.044,-0.0215,-0.0201,-0.0308,-0.0147,-0.0117,-0.0067,0.0103,0.0131,0.0041,0.005,0.0269,0.0289,0.0308,0.0342,0.0405,0.0412,0.0417,0.0508,0.0505,0.0503,0,0,0,0,0,0,-0.0491,-0.0466,-0.0224,-0.0319,-0.0286,-0.0144,-0.0089,-0.0063,-0.002,0.0127,0.0155,0.0057,0.0271,0.0297,0.0357,0.0352,0.0416,0.0423,0.0511,0.0507,0.0504,0.0398,0,0,0,0,0,0,-0.0501,-0.0469,-0.0459,-0.032,-0.0282,-0.0193,-0.0091,-0.0061,-0.0011,0.0003,0.015,0.0176,0.0275,0.0344,0.0365,0.0364,0.0429,0.0514,0.0509,0.0505,0.0404,0.0391,0.038,0,0,0,0,0,-0.0512,-0.0507,-0.0459,-0.0433,-0.0266,-0.0195,-0.0174,-0.0065,-0.0013,-0.0014,0.0087,0.0172,0.0331,0.0348,0.0374,0.0376,0.0516,0.0511,0.0506,0.0409,0.0393,0.038,0,0,0,0,0,0,-0.0644,-0.0485,-0.0429,-0.0378,-0.0306,-0.0167,-0.0155,-0.0086,-0.0005,0.0013,0.0151,0.0183,0.0223,0.0298,0.0313,0.0381,0.0433,0.0433,0.0351,0.0337,0.0325,0.0376,0.0436,0,0,0,0,0,-0.0669,-0.0612,-0.0482,-0.0449,-0.0416,-0.0293,-0.0254,-0.0182,-0.0087,-0.0047,0.005,0.0146,0.0218,0.0276,0.0336,0.0386,0.0477,0.0395,0.0383,0.0373,0.0425,0.0522,0.0525,0.0486,0.0486,0.0486,0,0,-0.0719,-0.0621,-0.0593,-0.0474,-0.0402,-0.0345,-0.0263,-0.0215,-0.016,-0.0036,0.004,0.0094,0.021,0.0262,0.0289,0.0335,0.0418,0.0366,0.0357,0.0417,0.0517,0.0522,0.0526,0.0482,0.0483,0.0483,0,0,-0.0783,-0.0698,-0.067,-0.0601,-0.0499,-0.0416,-0.0413,-0.0294,-0.0237,-0.0176,-0.0077,-0.0016,0.0087,0.0192,0.0257,0.0211,0.0328,0.0198,0.0219,0.0309,0.0316,0.0323,0.04,0.0415,0.022,0.022,0.022,0,-0.0858,-0.0768,-0.0668,-0.0615,-0.0549,-0.0452,-0.0409,-0.0345,-0.0227,-0.017,-0.0173,0.0002,0.0074,0.0207,0.0187,0.0195,0.0255,0.027,0.03,0.0308,0.0318,0.0396,0.0414,0.0214,0.0215,0.0216,0.0216,0,-0.0873,-0.0807,-0.0794,-0.0665,-0.0598,-0.056,-0.0438,-0.0397,-0.0333,-0.0241,-0.0151,-0.0063,0.0072,0.0063,0.0125,0.022,0.0241,0.0251,0.0348,0.0316,0.0399,0.0419,0.0206,0.0208,0.021,0.0211,0,0,-0.1013,-0.084,-0.0833,-0.073,-0.0611,-0.0522,-0.0477,-0.0356,-0.0248,-0.0216,-0.0083,-0.0016,0.0045,0.0121,0.0183,0.026,0.0335,0.0281,0.0289,0.038,0.0529,0.0498,0.0519,0.0345,0.0349,0.0352,0.0548,0,-0.1057,-0.095,-0.0856,-0.0729,-0.0643,-0.0527,-0.0443,-0.0321,-0.0234,-0.01,-0.0028,0.0102,0.0066,0.0144,0.0201,0.0319,0.0391,0.0282,0.0532,0.0541,0.0536,0.0543,0.0611,0.0788,0.0569,0.0572,0.0575,0,-0.1093,-0.0983,-0.0891,-0.0646,-0.0597,-0.0525,-0.0309,-0.0206,-0.0042,0.0023,0.0118,0.0194,0.0318,0.0279,0.046,0.0388,0.0459,0.0522,0.0531,0.0576,0.0551,0.0792,0.0835,0.0877,0.0608,0.0605,0.0603,0,-0.117,-0.0987,-0.089,-0.0818,-0.0572,-0.0505,-0.037,-0.0188,-0.0015,0.012,0.026,0.034,0.0472,0.0522,0.0602,0.0555,0.0795,0.0755,0.0795,0.0793,0.0947,0.0951,0.1095,0.0897,0.0896,0.0896,0.0895,0,-0.1232,-0.1128,-0.0903,-0.0842,-0.0607,-0.0471,-0.0224,-0.0116,0.0096,0.0367,0.0356,0.0562,0.0545,0.0666,0.0671,0.0797,0.0851,0.0834,0.0857,0.0899,0.0897,0.1017,0.1007,0.0903,0.0901,0.09,0.0899,0,-0.1334,-0.122,-0.1009,-0.0752,-0.064,-0.0451,-0.0077,0.0131,0.0262,0.06,0.0657,0.0783,0.0885,0.0856,0.0968,0.0953,0.1082,0.1055,0.108,0.1101,0.1126,0.1106,0.1322,0.1419,0.1145,0.1146,0.1146,0,-0.1363,-0.1303,-0.0935,-0.0723,-0.0602,-0.0291,-0.004,0.019,0.043,0.0786,0.0966,0.1085,0.1233,0.13,0.1184,0.115,0.1178,0.1255,0.1169,0.117,0.1169,0.1149,0.1215,0.1327,0.1329,0.1331,0.1332,0,-0.1369,-0.1259,-0.1045,-0.0647,-0.0339,0.0039,0.0366,0.056,0.0887,0.1131,0.1429,0.1535,0.1535,0.1502,0.1371,0.1342,0.1311,0.1285,0.1327,0.1364,0.1328,0.1418,0.1129,0.1346,0.1345,0.1344,0.1343,0.1343,-0.1299,-0.111,-0.0824,-0.0422,-0.0085,0.0295,0.0589,0.0909,0.1283,0.1646,0.1723,0.1922,0.1825,0.16,0.1522,0.142,0.1407,0.1482,0.1475,0.1466,0.1516,0.1224,0.1417,0.1416,0.1415,0.1415,0.1414,0,-0.1134,-0.0931,-0.0586,-0.0084,0.0255,0.04,0.0859,0.1133,0.1533,0.1812,0.2036,0.2154,0.204,0.1852,0.1658,0.1654,0.1651,0.1679,0.1713,0.1786,0.1594,0.1552,0.1736,0.1736,0.1736,0.1736,0.1736,0.1736,-0.0985,-0.067,-0.0469,0.0143,0.0438,0.0934,0.1182,0.1491,0.173,0.212,0.2304,0.2374,0.2272,0.1934,0.1803,0.1803,0.1897,0.1878,0.1921,0.1785,0.1767,0.1749,0.171,0.1924,0.1924,0.218,0.2182,0.2183]}],[{"header":{"parameterUnit":"m.s-1","parameterCategory":2,"la1":30.2991,"la2":30.254,"lo1":-89.0895,"lo2":-89.0444,"dy":0.0017,"dx":0.0017,"nx":28,"ny":28,"refTime":"2023-05-23T21:00:00:Z","depth":"2","parameterNumber":2,"parameterNumberName":"U-component_of_CURRENTS"},"data":[0,0,0,0,0,0,0,0,0,0,0,0,0,0,0,0,0,0,0,0,0,0,0,0,0,0,0,0,0,0,0,0,0,0,0,0,0,0,0,0,0,0,0,0,0,0,0,0,0,0,0,0,0,0,0,0,0,0,-0.2394,-0.2391,0,-0.2345,-0.2347,-0.2348,-0.2588,-0.2592,-0.2596,-0.26,-0.2646,-0.2643,-0.264,0,0,0,0,0,0,0,0,0,0,0,0,0,-0.2474,-0.2476,-0.2394,-0.2391,-0.2387,-0.2344,-0.2347,-0.2349,-0.2587,-0.2592,-0.2597,-0.2602,-0.2647,-0.2643,-0.264,0,0,0,0,0,0,0,0,0,0,0,0,0,-0.2462,-0.2476,-0.2395,-0.2479,-0.2484,-0.2344,-0.2347,-0.235,-0.2586,-0.2592,-0.2598,-0.2604,-0.2648,-0.2644,-0.264,-0.2488,0,0,-0.2627,-0.2626,0,0,0,0,0,0,0,0,-0.2463,-0.2463,-0.247,-0.2473,-0.2478,-0.2453,-0.239,-0.239,-0.2584,-0.2579,-0.26,-0.2607,-0.2565,-0.2569,-0.2587,-0.2491,-0.2493,-0.2627,-0.2625,-0.2623,-0.2622,0,0,0,0,0,0,0,-0.2464,-0.2465,-0.2405,-0.2465,-0.247,-0.2441,-0.2453,-0.2392,-0.2562,-0.258,-0.2589,-0.2534,-0.2574,-0.259,-0.2589,-0.2493,-0.2627,-0.2624,-0.2621,-0.2619,-0.2458,-0.2456,0,0,0,0,0,0,-0.2415,-0.2466,-0.2406,-0.24,-0.2452,-0.2434,-0.2447,-0.2479,-0.2561,-0.257,-0.2529,-0.2545,-0.2594,-0.2594,-0.2591,-0.2571,-0.2623,-0.2619,-0.2617,-0.246,-0.2458,-0.2456,0,0,0,0,0,0,-0.2418,-0.2413,-0.2407,-0.2403,-0.2397,-0.2424,-0.2458,-0.2474,-0.2507,-0.2516,-0.2536,-0.2545,-0.2599,-0.2597,-0.2618,-0.2569,-0.2617,-0.2614,-0.2462,-0.2459,-0.2457,-0.2429,0,0,0,0,0,0,-0.2423,-0.2418,-0.2428,-0.2403,-0.2395,-0.2342,-0.2449,-0.2467,-0.2447,-0.247,-0.2532,-0.2545,-0.2604,-0.2624,-0.2614,-0.2564,-0.261,-0.2464,-0.2461,-0.2457,-0.2433,-0.2426,-0.242,0,0,0,0,0,-0.2427,-0.2401,-0.2432,-0.2421,-0.2411,-0.2337,-0.2335,-0.2391,-0.2441,-0.245,-0.2537,-0.2544,-0.2594,-0.262,-0.2609,-0.2556,-0.2466,-0.2462,-0.2458,-0.2435,-0.2427,-0.2421,0,0,0,0,0,0,-0.2443,-0.2418,-0.2453,-0.2428,-0.2389,-0.2367,-0.2351,-0.2361,-0.2428,-0.247,-0.2526,-0.2542,-0.2548,-0.2534,-0.2561,-0.2498,-0.2522,-0.2516,-0.2509,-0.2501,-0.2495,-0.2507,-0.2607,0,0,0,0,0,-0.2436,-0.2417,-0.2389,-0.2355,-0.2353,-0.2347,-0.2319,-0.2346,-0.2369,-0.2408,-0.2474,-0.2509,-0.2503,-0.2499,-0.2519,-0.2451,-0.244,-0.2405,-0.2399,-0.2394,-0.2394,-0.2365,-0.2357,-0.2442,-0.2442,-0.2442,0,0,-0.2417,-0.2392,-0.2383,-0.2352,-0.2352,-0.2335,-0.2361,-0.2313,-0.2298,-0.2386,-0.2455,-0.2497,-0.2488,-0.2485,-0.2474,-0.2473,-0.2356,-0.2389,-0.2385,-0.2388,-0.236,-0.2352,-0.2345,-0.2439,-0.2439,-0.244,0,0,-0.234,-0.2377,-0.2346,-0.2325,-0.2275,-0.2286,-0.2263,-0.2278,-0.2309,-0.2315,-0.2395,-0.2421,-0.2419,-0.2434,-0.2416,-0.2351,-0.2342,-0.2334,-0.229,-0.2261,-0.2254,-0.2249,-0.2197,-0.2187,-0.231,-0.231,-0.231,0,-0.233,-0.2304,-0.231,-0.2279,-0.2255,-0.2269,-0.2244,-0.224,-0.2265,-0.2271,-0.2345,-0.2377,-0.2389,-0.2326,-0.2352,-0.2334,-0.2325,-0.2325,-0.2255,-0.225,-0.2244,-0.2193,-0.2183,-0.2308,-0.2308,-0.2309,-0.2309,0,-0.2226,-0.2233,-0.2206,-0.2215,-0.2196,-0.2155,-0.2155,-0.2177,-0.222,-0.2227,-0.2228,-0.2277,-0.2297,-0.2278,-0.2305,-0.2243,-0.225,-0.2272,-0.2282,-0.2234,-0.2183,-0.2172,-0.2306,-0.2306,-0.2307,-0.2307,0,0,-0.2157,-0.2149,-0.2146,-0.2163,-0.2164,-0.2137,-0.2125,-0.2109,-0.2111,-0.2147,-0.2145,-0.2142,-0.2194,-0.2177,-0.219,-0.2167,-0.2123,-0.2211,-0.2211,-0.2173,-0.2053,-0.1915,-0.189,-0.2152,-0.2151,-0.215,-0.2023,0,-0.2095,-0.2046,-0.2053,-0.204,-0.2044,-0.2076,-0.207,-0.2055,-0.2082,-0.2109,-0.208,-0.211,-0.2127,-0.2164,-0.213,-0.2167,-0.21,-0.2155,-0.2094,-0.2091,-0.1985,-0.1874,-0.1761,-0.1627,-0.2013,-0.2012,-0.201,0,-0.1995,-0.1988,-0.1961,-0.1999,-0.2008,-0.2001,-0.2031,-0.2016,-0.2017,-0.2051,-0.2049,-0.2077,-0.2048,-0.2088,-0.2032,-0.2081,-0.2051,-0.2052,-0.2047,-0.1924,-0.1932,-0.174,-0.1594,-0.1993,-0.1994,-0.1996,-0.1997,0,-0.1928,-0.1927,-0.1912,-0.1915,-0.1955,-0.1952,-0.1978,-0.1995,-0.2015,-0.202,-0.2074,-0.2026,-0.2036,-0.2005,-0.1975,-0.2034,-0.1906,-0.1979,-0.1788,-0.1778,-0.1667,-0.1648,-0.1885,-0.1885,-0.1885,-0.1886,-0.1886,0,-0.185,-0.1843,-0.1882,-0.1874,-0.1854,-0.1913,-0.1911,-0.1931,-0.2007,-0.2015,-0.2041,-0.2026,-0.2031,-0.1959,-0.1939,-0.1794,-0.1847,-0.1745,-0.1722,-0.1647,-0.1629,-0.1953,-0.1963,-0.1881,-0.1882,-0.1883,-0.1884,0,-0.1759,-0.179,-0.1769,-0.1812,-0.1811,-0.1794,-0.1876,-0.1892,-0.199,-0.2009,-0.2028,-0.2039,-0.1927,-0.1858,-0.178,-0.1723,-0.1627,-0.154,-0.1429,-0.1394,-0.1539,-0.1549,-0.1365,-0.1359,-0.1354,-0.1349,-0.1346,0,-0.1703,-0.1684,-0.1688,-0.1663,-0.167,-0.168,-0.1685,-0.1827,-0.1898,-0.1977,-0.1992,-0.1906,-0.1803,-0.1603,-0.1442,-0.1287,-0.1397,-0.1119,-0.1196,-0.1482,-0.148,-0.1498,-0.1514,-0.1038,-0.1032,-0.1027,-0.1023,0,-0.1582,-0.158,-0.1551,-0.1512,-0.15,-0.1511,-0.1578,-0.1655,-0.1812,-0.1865,-0.187,-0.1801,-0.1567,-0.1326,-0.1095,-0.1004,-0.1153,-0.1014,-0.1314,-0.1181,-0.1161,-0.1164,-0.1193,-0.098,-0.0985,-0.0988,-0.099,-0.0992,-0.1458,-0.1394,-0.1358,-0.1311,-0.131,-0.1334,-0.1323,-0.1453,-0.1527,-0.1569,-0.1623,-0.1443,-0.1383,-0.093,-0.0811,-0.0666,-0.0778,-0.0787,-0.0808,-0.0833,-0.0811,-0.0782,-0.0525,-0.0526,-0.0528,-0.0529,-0.053,0,-0.1265,-0.1215,-0.1169,-0.111,-0.1079,-0.1145,-0.1231,-0.1226,-0.1244,-0.1244,-0.1213,-0.0988,-0.0802,-0.0704,-0.0426,-0.0389,-0.0442,-0.0372,-0.0487,-0.0527,-0.0563,-0.0535,-0.0172,-0.0171,-0.0171,-0.017,0,0,-0.115,-0.1027,-0.1013,-0.0888,-0.0875,-0.0808,-0.0832,-0.0838,-0.085,-0.0752,-0.065,-0.0654,-0.0669,-0.0432,-0.0379,-0.0236,-0.038,-0.0189,-0.0468,-0.0641,-0.0677,-0.0777,-0.0773,0,0,0,0,0]},{"header":{"parameterUnit":"m.s-1","parameterCategory":2,"la1":30.2991,"la2":30.254,"lo1":-89.0895,"lo2":-89.0444,"dy":0.0017,"dx":0.0017,"nx":28,"ny":28,"refTime":"2023-05-23T21:00:00:Z","depth":"2","parameterNumber":3,"parameterNumberName":"V-component_of_CURRENTS"},"data":[0,0,0,0,0,0,0,0,0,0,0,0,0,0,0,0,0,0,0,0,0,0,0,0,0,0,0,0,0,0,0,0,0,0,0,0,0,0,0,0,0,0,0,0,0,0,0,0,0,0,0,0,0,0,0,0,0,0,-0.0607,-0.0606,0,-0.048,-0.0478,-0.0476,-0.0234,-0.0229,-0.0225,-0.0221,0.0298,0.0308,0.0318,0,0,0,0,0,0,0,0,0,0,0,0,0,-0.0738,-0.0736,-0.0607,-0.0606,-0.0605,-0.048,-0.0478,-0.0476,-0.0234,-0.0229,-0.0224,-0.0219,0.0295,0.0307,0.0319,0,0,0,0,0,0,0,0,0,0,0,0,0,-0.0649,-0.0736,-0.0608,-0.0473,-0.046,-0.0481,-0.0478,-0.0475,-0.0235,-0.0229,-0.0222,-0.0216,0.0291,0.0306,0.032,0.0282,0,0,0.0365,0.0372,0,0,0,0,0,0,0,0,-0.0654,-0.0644,-0.0494,-0.0482,-0.0468,-0.037,-0.0334,-0.0204,-0.0237,-0.0316,-0.0221,-0.0213,0.0103,0.0134,0.0145,0.0306,0.0329,0.0367,0.0375,0.0382,0.0386,0,0,0,0,0,0,0,-0.066,-0.0648,-0.0552,-0.0493,-0.0477,-0.0453,-0.0431,-0.031,-0.0133,-0.0308,-0.0292,-0.0287,0.0115,0.0129,0.016,0.0336,0.0366,0.0379,0.0388,0.0394,0.0758,0.0759,0,0,0,0,0,0,-0.0688,-0.0654,-0.0556,-0.0549,-0.0552,-0.0455,-0.0431,-0.0404,-0.0142,-0.0101,-0.0293,-0.0276,0.0101,0.0142,0.0179,0.0351,0.0382,0.0395,0.0404,0.0757,0.0758,0.0759,0,0,0,0,0,0,-0.0691,-0.068,-0.0561,-0.0603,-0.0587,-0.046,-0.0431,-0.0405,-0.0357,-0.0136,-0.0084,-0.0267,0.0108,0.0159,0.0377,0.0367,0.0402,0.0415,0.0756,0.0758,0.0759,0.0569,0,0,0,0,0,0,-0.0695,-0.0681,-0.0687,-0.0605,-0.0586,-0.0549,-0.0437,-0.0407,-0.0368,-0.0344,-0.0098,-0.0045,0.0117,0.0354,0.0392,0.0388,0.0427,0.0755,0.0757,0.0758,0.0574,0.0563,0.0554,0,0,0,0,0,-0.07,-0.0701,-0.0688,-0.0677,-0.0591,-0.0551,-0.0538,-0.0424,-0.0374,-0.0357,-0.0144,-0.0051,0.039,0.0368,0.0411,0.0411,0.0754,0.0756,0.0758,0.0578,0.0565,0.0554,0,0,0,0,0,0,-0.0749,-0.0676,-0.0657,-0.0635,-0.06,-0.051,-0.0481,-0.0447,-0.029,-0.0227,-0.0025,0.0043,0.0226,0.0341,0.031,0.0523,0.0578,0.0589,0.0426,0.0416,0.0406,0.0358,0.0439,0,0,0,0,0,-0.0781,-0.0759,-0.0702,-0.0691,-0.0662,-0.0593,-0.0571,-0.0503,-0.0363,-0.0291,-0.0121,0.0078,0.0247,0.0356,0.0526,0.0632,0.0687,0.0659,0.0648,0.0639,0.0632,0.067,0.0661,0.0765,0.0765,0.0765,0,0,-0.0806,-0.0761,-0.0753,-0.0704,-0.0648,-0.0601,-0.0556,-0.0504,-0.0462,-0.0256,-0.0099,0.0055,0.0272,0.0427,0.0512,0.0535,0.0643,0.0641,0.0631,0.063,0.0671,0.066,0.065,0.0767,0.0766,0.0766,0,0,-0.0819,-0.079,-0.0765,-0.0727,-0.0663,-0.0617,-0.0612,-0.0519,-0.0459,-0.0336,-0.0161,-0.0031,0.0233,0.0359,0.0462,0.048,0.059,0.0554,0.0466,0.0501,0.0491,0.0483,0.0538,0.0537,0.0544,0.0543,0.0543,0,-0.0852,-0.0805,-0.0762,-0.0711,-0.0675,-0.0623,-0.0583,-0.0538,-0.039,-0.0347,-0.0279,0.0028,0.018,0.0337,0.0366,0.0446,0.0519,0.0485,0.048,0.0474,0.0469,0.0527,0.0528,0.0535,0.0536,0.0536,0.0537,0,-0.0819,-0.0792,-0.0762,-0.0677,-0.0646,-0.0603,-0.0535,-0.0492,-0.0432,-0.0384,-0.0244,-0.007,0.0103,0.0153,0.0285,0.0334,0.0415,0.0455,0.0487,0.0445,0.0512,0.0516,0.0522,0.0525,0.0528,0.053,0,0,-0.086,-0.0765,-0.0755,-0.0729,-0.0622,-0.0599,-0.0528,-0.0474,-0.0441,-0.0345,-0.0299,-0.0101,-0.006,0.0056,0.0181,0.0212,0.0216,0.0324,0.0331,0.0339,0.0339,0.0331,0.0336,0.0275,0.0275,0.0275,0.0397,0,-0.0848,-0.0787,-0.0727,-0.0675,-0.0637,-0.0566,-0.0518,-0.0463,-0.0403,-0.0341,-0.0263,-0.014,-0.0082,0.0001,0.0022,0.0211,0.0222,0.0182,0.0416,0.0422,0.0386,0.0337,0.0293,0.0394,0.0401,0.0402,0.0403,0,-0.0823,-0.0792,-0.0751,-0.0691,-0.0664,-0.063,-0.0559,-0.0513,-0.0428,-0.0377,-0.0307,-0.0205,-0.0118,-0.0087,0.0083,0.0078,0.0179,0.0277,0.0284,0.0345,0.0421,0.0445,0.0401,0.041,0.041,0.0409,0.0409,0,-0.0887,-0.0809,-0.0794,-0.0762,-0.0679,-0.0661,-0.0619,-0.0534,-0.049,-0.0407,-0.0335,-0.0251,-0.0145,-0.0063,0.0117,0.0128,0.0299,0.0329,0.0398,0.0401,0.0439,0.0445,0.0388,0.0388,0.0387,0.0387,0.0387,0,-0.0897,-0.0886,-0.0834,-0.0826,-0.0812,-0.0731,-0.0713,-0.0644,-0.0551,-0.047,-0.0374,-0.0275,-0.0122,0.0008,0.0104,0.0263,0.0272,0.037,0.0418,0.0376,0.0374,0.0457,0.0463,0.0392,0.0391,0.039,0.0389,0,-0.0964,-0.0925,-0.0914,-0.0859,-0.0846,-0.0842,-0.0767,-0.0738,-0.0626,-0.051,-0.0465,-0.0257,-0.0075,0.0054,0.0245,0.0293,0.0408,0.0454,0.04,0.0436,0.0493,0.0489,0.0537,0.0537,0.0538,0.0538,0.0538,0,-0.099,-0.0997,-0.0966,-0.0957,-0.0936,-0.0924,-0.0899,-0.0803,-0.0745,-0.0487,-0.0419,-0.0188,-0.0046,0.0192,0.0318,0.0443,0.0459,0.0483,0.0446,0.0458,0.0501,0.0497,0.0492,0.0443,0.0442,0.0442,0.0441,0,-0.1045,-0.1042,-0.1024,-0.1011,-0.0999,-0.099,-0.0939,-0.091,-0.0743,-0.0624,-0.0392,-0.0253,0.0041,0.0184,0.0353,0.0413,0.0442,0.0477,0.0517,0.0393,0.0374,0.0415,0.0413,0.0437,0.0438,0.0438,0.0438,0.0438,-0.1082,-0.108,-0.1049,-0.1031,-0.1022,-0.1008,-0.0998,-0.092,-0.0834,-0.0589,-0.0464,-0.0224,-0.0034,0.0199,0.0326,0.0469,0.0462,0.0474,0.0474,0.0475,0.0423,0.0403,0.0465,0.0465,0.0466,0.0466,0.0467,0,-0.109,-0.1066,-0.1054,-0.1023,-0.1008,-0.1007,-0.0964,-0.0922,-0.0821,-0.0617,-0.0447,-0.024,-0.0086,0.0154,0.0368,0.0459,0.0458,0.0481,0.0453,0.0454,0.0456,0.0403,0.0441,0.0441,0.0442,0.0443,0,0,-0.1084,-0.1058,-0.1036,-0.0992,-0.098,-0.0951,-0.0934,-0.0859,-0.073,-0.0555,-0.0385,-0.0287,-0.0035,0.009,0.0216,0.0362,0.0387,0.0371,0.037,0.0321,0.0323,0.0419,0.0333,0,0,0,0,0]}],[{"header":{"parameterUnit":"m.s-1","parameterCategory":2,"la1":30.2991,"la2":30.254,"lo1":-89.0895,"lo2":-89.0444,"dy":0.0017,"dx":0.0017,"nx":28,"ny":28,"refTime":"2023-05-23T21:00:00:Z","depth":"4","parameterNumber":2,"parameterNumberName":"U-component_of_CURRENTS"},"data":[0,0,0,0,0,0,0,0,0,0,0,0,0,0,0,0,0,0,0,0,0,0,0,0,0,0,0,0,0,0,0,0,0,0,0,0,0,0,0,0,0,0,0,0,0,0,0,0,0,0,0,0,0,0,0,0,0,0,-0.119,-0.119,0,-0.113,-0.1129,-0.1128,-0.1079,-0.1078,-0.1078,-0.1077,-0.1067,-0.1068,-0.1068,0,0,0,0,0,0,0,0,0,0,0,0,0,-0.1277,-0.1275,-0.119,-0.119,-0.1189,-0.113,-0.1129,-0.1128,-0.1079,-0.1078,-0.1078,-0.1077,-0.1067,-0.1068,-0.1068,0,0,0,0,0,0,0,0,0,0,0,0,0,-0.1229,-0.1275,-0.119,-0.1158,-0.1155,-0.113,-0.1129,-0.1128,-0.1079,-0.1078,-0.1078,-0.1077,-0.1067,-0.1068,-0.1068,-0.1082,0,0,-0.1068,-0.1068,0,0,0,0,0,0,0,0,-0.1232,-0.1226,-0.1163,-0.116,-0.1156,-0.1112,-0.1155,-0.1115,-0.1079,-0.1107,-0.1077,-0.1077,-0.1088,-0.1087,-0.1074,-0.1081,-0.1081,-0.1068,-0.1068,-0.1068,-0.1069,0,0,0,0,0,0,0,-0.1235,-0.1228,-0.1165,-0.1163,-0.1159,-0.1151,-0.1143,-0.1147,-0.1102,-0.1104,-0.1101,-0.1096,-0.1086,-0.1074,-0.1074,-0.108,-0.1068,-0.1068,-0.1069,-0.1069,-0.1089,-0.1089,0,0,0,0,0,0,-0.1244,-0.1231,-0.1167,-0.1164,-0.1194,-0.115,-0.1141,-0.1126,-0.1101,-0.1096,-0.1096,-0.1094,-0.1074,-0.1074,-0.1074,-0.1104,-0.1068,-0.1069,-0.1069,-0.1088,-0.1089,-0.1089,0,0,0,0,0,0,-0.1246,-0.1239,-0.117,-0.1198,-0.1188,-0.1149,-0.1132,-0.1125,-0.1125,-0.1094,-0.109,-0.1105,-0.1074,-0.1073,-0.1081,-0.1102,-0.1069,-0.1069,-0.1088,-0.1088,-0.1089,-0.1154,0,0,0,0,0,0,-0.1249,-0.124,-0.1246,-0.1198,-0.1187,-0.1155,-0.1133,-0.1124,-0.1123,-0.1119,-0.1101,-0.1098,-0.1073,-0.108,-0.1081,-0.1102,-0.1069,-0.1087,-0.1088,-0.1089,-0.1152,-0.1157,-0.1162,0,0,0,0,0,-0.1252,-0.1241,-0.1246,-0.124,-0.1192,-0.1155,-0.1149,-0.1119,-0.1124,-0.1119,-0.1111,-0.1099,-0.1085,-0.1081,-0.1082,-0.1103,-0.1087,-0.1088,-0.1089,-0.1149,-0.1156,-0.1162,0,0,0,0,0,0,-0.1275,-0.1234,-0.1239,-0.1216,-0.1197,-0.1147,-0.1149,-0.1135,-0.1126,-0.1137,-0.111,-0.1106,-0.1121,-0.1103,-0.1099,-0.1108,-0.1083,-0.1084,-0.1129,-0.1135,-0.114,-0.116,-0.1069,0,0,0,0,0,-0.129,-0.1276,-0.124,-0.123,-0.1228,-0.1202,-0.1192,-0.1174,-0.1153,-0.1148,-0.1131,-0.1122,-0.1123,-0.1122,-0.1113,-0.1126,-0.1115,-0.1137,-0.1142,-0.1146,-0.1162,-0.117,-0.1178,-0.1092,-0.1092,-0.1092,0,0,-0.13,-0.1276,-0.1271,-0.1237,-0.1229,-0.123,-0.1194,-0.1185,-0.1192,-0.1153,-0.1163,-0.1146,-0.1131,-0.1137,-0.1142,-0.1126,-0.1159,-0.1148,-0.1152,-0.1165,-0.1172,-0.118,-0.1188,-0.1093,-0.1093,-0.1093,0,0,-0.1306,-0.1297,-0.1294,-0.1289,-0.1278,-0.126,-0.1266,-0.1231,-0.1225,-0.1229,-0.1207,-0.1203,-0.1195,-0.118,-0.1178,-0.121,-0.119,-0.1205,-0.1248,-0.1256,-0.1264,-0.127,-0.1248,-0.1253,-0.1204,-0.1204,-0.1204,0,-0.1333,-0.1316,-0.1289,-0.1296,-0.1305,-0.1283,-0.1298,-0.1289,-0.1258,-0.1261,-0.1243,-0.1239,-0.1219,-0.124,-0.1239,-0.1225,-0.1216,-0.1229,-0.1265,-0.1271,-0.1277,-0.1253,-0.1257,-0.1208,-0.1207,-0.1207,-0.1207,0,-0.133,-0.1344,-0.1346,-0.1354,-0.1357,-0.1364,-0.1356,-0.136,-0.1357,-0.1338,-0.1351,-0.1321,-0.1311,-0.1305,-0.1283,-0.1313,-0.1288,-0.1275,-0.1255,-0.129,-0.1261,-0.1264,-0.1212,-0.1211,-0.121,-0.1209,0,0,-0.1322,-0.1344,-0.135,-0.1372,-0.1394,-0.1382,-0.1425,-0.1428,-0.1443,-0.1428,-0.144,-0.1437,-0.1409,-0.1404,-0.1375,-0.1379,-0.1395,-0.1348,-0.1346,-0.1335,-0.1397,-0.1248,-0.1237,-0.1395,-0.1396,-0.1397,-0.1355,0,-0.134,-0.1359,-0.1372,-0.1414,-0.1428,-0.1452,-0.1479,-0.1488,-0.1488,-0.1485,-0.1479,-0.147,-0.1451,-0.1437,-0.1448,-0.1399,-0.1409,-0.1407,-0.1357,-0.1355,-0.1227,-0.1238,-0.1401,-0.1357,-0.1357,-0.1358,-0.1358,0,-0.1331,-0.1345,-0.1385,-0.1435,-0.1447,-0.1472,-0.1512,-0.1531,-0.1545,-0.1546,-0.156,-0.1535,-0.1533,-0.151,-0.149,-0.149,-0.1461,-0.1432,-0.1429,-0.1274,-0.1212,-0.1316,-0.1363,-0.1362,-0.1362,-0.1362,-0.1361,0,-0.1299,-0.1353,-0.1382,-0.1403,-0.1454,-0.1486,-0.1511,-0.1541,-0.1542,-0.1573,-0.1563,-0.1582,-0.1548,-0.1554,-0.1477,-0.1493,-0.144,-0.1448,-0.1298,-0.1286,-0.1407,-0.1401,-0.1464,-0.1464,-0.1464,-0.1464,-0.1465,0,-0.1287,-0.1315,-0.1368,-0.1383,-0.1404,-0.1462,-0.1484,-0.1516,-0.1546,-0.1522,-0.1574,-0.1545,-0.1558,-0.1515,-0.1492,-0.1373,-0.145,-0.1306,-0.127,-0.143,-0.1427,-0.1408,-0.1402,-0.1463,-0.1463,-0.1464,-0.1464,0,-0.1234,-0.1283,-0.1307,-0.137,-0.1385,-0.1391,-0.1436,-0.1438,-0.1493,-0.1469,-0.1472,-0.1494,-0.143,-0.1419,-0.1382,-0.1336,-0.1275,-0.1224,-0.1369,-0.1341,-0.1123,-0.1121,-0.1071,-0.1066,-0.1061,-0.1057,-0.1054,0,-0.1206,-0.1213,-0.1263,-0.1263,-0.129,-0.1312,-0.1317,-0.1386,-0.1381,-0.1407,-0.1372,-0.134,-0.133,-0.1166,-0.1188,-0.113,-0.112,-0.1099,-0.1152,-0.1115,-0.1085,-0.1091,-0.1095,-0.1047,-0.1045,-0.1044,-0.1043,0,-0.113,-0.1153,-0.1159,-0.1163,-0.1171,-0.1171,-0.1188,-0.117,-0.1227,-0.129,-0.1219,-0.1179,-0.1095,-0.1061,-0.1,-0.0975,-0.1123,-0.105,-0.1062,-0.1112,-0.1085,-0.1061,-0.107,-0.1027,-0.1029,-0.1031,-0.1031,0,-0.1054,-0.1026,-0.1036,-0.1027,-0.104,-0.1014,-0.1044,-0.1027,-0.1032,-0.1082,-0.1045,-0.1034,-0.106,-0.0976,-0.0929,-0.0871,-0.0877,-0.088,-0.09,-0.0918,-0.0885,-0.0829,-0.0659,0,0,0,0,0,-0.0956,-0.0907,-0.0899,-0.0876,-0.0897,-0.0904,-0.0944,-0.0986,-0.104,-0.0948,-0.0996,-0.0918,-0.0841,-0.0853,-0.0758,-0.0855,-0.0879,-0.0744,-0.0894,-0.0937,-0.0956,-0.0929,0,0,0,0,0,0,-0.0882,-0.0852,-0.0846,-0.0758,-0.0727,-0.0728,-0.075,-0.0798,-0.0765,-0.0832,-0.0794,-0.085,-0.0789,-0.0855,-0.073,-0.0729,-0.0803,-0.075,-0.0747,-0.0926,-0.0943,-0.0958,-0.0938,0,0,0,0,0]},{"header":{"parameterUnit":"m.s-1","parameterCategory":2,"la1":30.2991,"la2":30.254,"lo1":-89.0895,"lo2":-89.0444,"dy":0.0017,"dx":0.0017,"nx":28,"ny":28,"refTime":"2023-05-23T21:00:00:Z","depth":"4","parameterNumber":3,"parameterNumberName":"V-component_of_CURRENTS"},"data":[0,0,0,0,0,0,0,0,0,0,0,0,0,0,0,0,0,0,0,0,0,0,0,0,0,0,0,0,0,0,0,0,0,0,0,0,0,0,0,0,0,0,0,0,0,0,0,0,0,0,0,0,0,0,0,0,0,0,-0.0514,-0.0515,0,-0.0564,-0.0565,-0.0566,-0.0609,-0.061,-0.061,-0.0611,-0.0607,-0.0606,-0.0606,0,0,0,0,0,0,0,0,0,0,0,0,0,-0.0504,-0.0503,-0.0514,-0.0515,-0.0515,-0.0564,-0.0565,-0.0566,-0.0609,-0.061,-0.0611,-0.0611,-0.0607,-0.0606,-0.0606,0,0,0,0,0,0,0,0,0,0,0,0,0,-0.0526,-0.0503,-0.0514,-0.0543,-0.0546,-0.0564,-0.0565,-0.0566,-0.0609,-0.061,-0.0611,-0.0611,-0.0607,-0.0606,-0.0605,-0.0585,0,0,-0.0603,-0.0602,0,0,0,0,0,0,0,0,-0.0525,-0.0527,-0.0538,-0.0541,-0.0545,-0.0581,-0.056,-0.057,-0.0609,-0.0585,-0.0611,-0.0612,-0.0593,-0.0593,-0.0602,-0.0585,-0.0585,-0.0603,-0.0602,-0.0602,-0.0602,0,0,0,0,0,0,0,-0.0523,-0.0525,-0.0534,-0.0539,-0.0543,-0.057,-0.0573,-0.0562,-0.0583,-0.0587,-0.0591,-0.0596,-0.0594,-0.0602,-0.0602,-0.0585,-0.0603,-0.0602,-0.0601,-0.0601,-0.0563,-0.0562,0,0,0,0,0,0,-0.0513,-0.0523,-0.0533,-0.0536,-0.0536,-0.0569,-0.0573,-0.0569,-0.0585,-0.0588,-0.0595,-0.0598,-0.0604,-0.0603,-0.0602,-0.0581,-0.0602,-0.0601,-0.0601,-0.0563,-0.0562,-0.0562,0,0,0,0,0,0,-0.0513,-0.0513,-0.0531,-0.0531,-0.0535,-0.0568,-0.0563,-0.0569,-0.0591,-0.0591,-0.0594,-0.0612,-0.0604,-0.0603,-0.0587,-0.0581,-0.0601,-0.06,-0.0564,-0.0563,-0.0562,-0.0537,0,0,0,0,0,0,-0.0512,-0.0513,-0.0521,-0.053,-0.0535,-0.0541,-0.0563,-0.057,-0.0592,-0.0596,-0.0605,-0.0605,-0.0605,-0.0588,-0.0586,-0.058,-0.0599,-0.0564,-0.0563,-0.0562,-0.0538,-0.0535,-0.0533,0,0,0,0,0,-0.0511,-0.0509,-0.052,-0.0523,-0.0539,-0.0541,-0.0546,-0.0572,-0.0592,-0.0596,-0.0596,-0.0606,-0.0581,-0.0586,-0.0584,-0.0578,-0.0565,-0.0564,-0.0562,-0.054,-0.0536,-0.0533,0,0,0,0,0,0,-0.0517,-0.0513,-0.0526,-0.0526,-0.0535,-0.0548,-0.0556,-0.0576,-0.0583,-0.0585,-0.0592,-0.0591,-0.0578,-0.0578,-0.0585,-0.0564,-0.0577,-0.0576,-0.0561,-0.0557,-0.0554,-0.0538,-0.0599,0,0,0,0,0,-0.0518,-0.0514,-0.0518,-0.0524,-0.0521,-0.0542,-0.0553,-0.0566,-0.0568,-0.0575,-0.0579,-0.0578,-0.0569,-0.0564,-0.0557,-0.054,-0.0522,-0.0537,-0.0534,-0.0532,-0.0517,-0.0467,-0.0458,-0.0558,-0.0558,-0.0558,0,0,-0.0532,-0.0523,-0.0529,-0.0525,-0.0532,-0.0524,-0.055,-0.0555,-0.0556,-0.0569,-0.0567,-0.0567,-0.0563,-0.0545,-0.054,-0.0546,-0.0498,-0.053,-0.0528,-0.0514,-0.0465,-0.0455,-0.0446,-0.0557,-0.0557,-0.0558,0,0,-0.0534,-0.0534,-0.0527,-0.052,-0.0519,-0.0523,-0.0525,-0.0533,-0.0542,-0.0538,-0.0545,-0.053,-0.0534,-0.0515,-0.051,-0.0484,-0.0485,-0.05,-0.0469,-0.0421,-0.0412,-0.0403,-0.0383,-0.0373,-0.0497,-0.0497,-0.0497,0,-0.0552,-0.0538,-0.053,-0.0509,-0.0504,-0.0519,-0.0508,-0.0512,-0.052,-0.0513,-0.0534,-0.0514,-0.0512,-0.0474,-0.047,-0.0475,-0.0462,-0.0483,-0.0415,-0.0407,-0.0398,-0.038,-0.0369,-0.0496,-0.0496,-0.0496,-0.0496,0,-0.0535,-0.0532,-0.052,-0.0496,-0.0487,-0.0479,-0.047,-0.0469,-0.0484,-0.0488,-0.0467,-0.0459,-0.0445,-0.0448,-0.0453,-0.0399,-0.0415,-0.0418,-0.0421,-0.0386,-0.037,-0.0359,-0.0494,-0.0494,-0.0495,-0.0495,0,0,-0.0558,-0.0521,-0.0519,-0.0517,-0.0478,-0.0477,-0.0447,-0.0433,-0.0433,-0.0425,-0.0417,-0.0387,-0.039,-0.0382,-0.0384,-0.0343,-0.0284,-0.036,-0.0358,-0.0335,-0.0197,-0.0214,-0.0205,-0.0278,-0.0276,-0.0274,-0.0214,0,-0.0556,-0.0533,-0.05,-0.0491,-0.0483,-0.0455,-0.0437,-0.0419,-0.0414,-0.0407,-0.0376,-0.0375,-0.0364,-0.0372,-0.0318,-0.0309,-0.0252,-0.0301,-0.0238,-0.0236,-0.025,-0.0191,-0.0266,-0.0206,-0.0204,-0.0202,-0.0201,0,-0.0549,-0.0537,-0.0526,-0.0505,-0.0496,-0.0489,-0.0462,-0.0447,-0.0409,-0.0404,-0.0362,-0.0355,-0.03,-0.0305,-0.0211,-0.0249,-0.0207,-0.0186,-0.0183,-0.0195,-0.0231,-0.0244,-0.0181,-0.0183,-0.0184,-0.0185,-0.0187,0,-0.059,-0.0557,-0.0559,-0.0547,-0.0518,-0.051,-0.0495,-0.0455,-0.0455,-0.0407,-0.0415,-0.033,-0.0333,-0.0239,-0.0199,-0.0202,-0.011,-0.0108,-0.0067,-0.007,-0.0087,-0.0096,0.0,0.0,0.0,0.0,-0.0,0,-0.0598,-0.0606,-0.0591,-0.0597,-0.0607,-0.056,-0.0566,-0.0535,-0.0505,-0.0505,-0.0431,-0.0428,-0.0318,-0.0264,-0.0189,-0.0109,-0.0091,-0.004,-0.004,-0.0082,-0.0091,-0.008,-0.009,0.0002,0.0002,0.0001,0.0001,0,-0.0647,-0.0634,-0.065,-0.0634,-0.0636,-0.0648,-0.0635,-0.0627,-0.06,-0.0597,-0.0588,-0.0514,-0.043,-0.0322,-0.0199,-0.0127,-0.0033,-0.0001,-0.0074,-0.0083,-0.0023,-0.0033,0.0073,0.0074,0.0074,0.0074,0.0074,0,-0.0667,-0.0685,-0.0701,-0.0708,-0.0708,-0.0719,-0.0714,-0.0686,-0.067,-0.0655,-0.065,-0.0586,-0.0519,-0.0353,-0.0237,-0.0062,-0.0037,0.0017,0.0042,0.0003,-0.0008,-0.0018,-0.0027,0.0075,0.0075,0.0075,0.0075,0,-0.0712,-0.0731,-0.0741,-0.0758,-0.0768,-0.0775,-0.0767,-0.0773,-0.0731,-0.0736,-0.0684,-0.0593,-0.0504,-0.0355,-0.0228,-0.0106,-0.0012,0.002,0.0022,0.0045,0.0005,-0.0008,-0.0017,0.0075,0.0075,0.0075,0.0075,0,-0.0751,-0.0767,-0.0776,-0.0783,-0.0799,-0.0789,-0.0796,-0.0757,-0.075,-0.0715,-0.0715,-0.0612,-0.0557,-0.0381,-0.0272,-0.0145,-0.0096,-0.004,-0.0034,-0.0034,-0.0082,-0.0149,-0.0104,0,0,0,0,0,-0.0768,-0.0769,-0.0781,-0.0782,-0.0796,-0.0797,-0.0793,-0.0785,-0.0779,-0.0734,-0.0714,-0.0619,-0.0453,-0.0395,-0.0262,-0.0261,-0.0078,-0.0102,-0.0011,0.008,0.0079,0.004,0,0,0,0,0,0,-0.0772,-0.0792,-0.0778,-0.0768,-0.0767,-0.0773,-0.0769,-0.0767,-0.0724,-0.0717,-0.0622,-0.0595,-0.0426,-0.0531,-0.0266,-0.0234,-0.0157,-0.0032,-0.0029,0.008,0.0079,0.0079,0.0038,0,0,0,0,0]}]]